This is the latest recevied weather packets stored in our database for station/object W9WRP. If no packets are shown the sender has not sent any weather packets the latest 10 day(s).
| Time | Temp. | Humidity | Pressure | Rain* | Wind** | Luminosity | Snow |
|---|---|---|---|---|---|---|---|
| 1787962052 | 42.78° C | 20% | 1011.9 hPa | 0 mm | - | 78 W/m² | - |
| 1787961747 | 42.78° C | 20% | 1011.9 hPa | 0 mm | - | 184 W/m² | - |
| 1787961446 | 42.78° C | 20% | 1011.9 hPa | 0 mm | - | 94 W/m² | - |
| 1787961145 | 42.78° C | 19% | 1012 hPa | 0 mm | - | 104 W/m² | - |
| 1787960838 | 42.22° C | 20% | 1011.9 hPa | 0 mm | - | 120 W/m² | - |
| 1787960534 | 42.22° C | 20% | 1011.9 hPa | 0 mm | - | 142 W/m² | - |
| 1787960233 | 42.78° C | 19% | 1011.9 hPa | 0 mm | - | 141 W/m² | - |
| 1787959933 | 43.33° C | 19% | 1012 hPa | 0 mm | - | 117 W/m² | - |
| 1787959628 | 42.22° C | 19% | 1012.1 hPa | 0 mm | - | 159 W/m² | - |
| 1787959327 | 42.22° C | 20% | 1012 hPa | 0 mm | - | 107 W/m² | - |
| 1787959022 | 41.67° C | 20% | 1012.1 hPa | 0 mm | - | 123 W/m² | - |
| 1787958717 | 41.67° C | 20% | 1012.2 hPa | 0 mm | - | 125 W/m² | - |
| 1787958412 | 42.78° C | 20% | 1012.3 hPa | 0 mm | - | 162 W/m² | - |
| 1787958109 | 42.78° C | 19% | 1012.1 hPa | 0 mm | - | 207 W/m² | - |
| 1787957807 | 42.78° C | 19% | 1012.2 hPa | 0 mm | - | 228 W/m² | - |
| 1787957502 | 41.67° C | 20% | 1012.3 hPa | 0 mm | - | 195 W/m² | - |
| 1787957197 | 42.22° C | 20% | 1012.5 hPa | 0 mm | - | 255 W/m² | - |
| 1787956892 | 42.78° C | 19% | 1012.4 hPa | 0 mm | - | 208 W/m² | - |
| 1787956591 | 42.78° C | 20% | 1012.5 hPa | 0 mm | - | 226 W/m² | - |
| 1787956286 | 42.78° C | 20% | 1012.6 hPa | 0 mm | - | 292 W/m² | - |
| 1787955982 | 43.33° C | 20% | 1012.6 hPa | 0 mm | - | 232 W/m² | - |
| 1787955677 | 43.89° C | 19% | 1012.6 hPa | 0 mm | - | 438 W/m² | - |
| 1787955373 | 43.33° C | 20% | 1013.1 hPa | 0 mm | - | 446 W/m² | - |
| 1787955071 | 43.89° C | 19% | 1012.7 hPa | 0 mm | - | 498 W/m² | - |
| 1787954762 | 43.33° C | 20% | 1013.2 hPa | 0 mm | - | 495 W/m² | - |
* Rain latest hour (hover to see other rain measurements)
** Current wind speed in m/s (hover to see current wind gust speed)